Flag for China Weather past 2 weeks in Shenzhen, Guangdong, China

Now
59 °F

Passing clouds.


Feels Like: 58 °F
Forecast: 48 / 65 °F
Wind: 8 mph from North

Location: Shenzhen Airport

Current Time: Dec 20, 2014 at 11:56:18 AM

Latest Report: Dec 20, 2014 at 11:00 AM


Visibility: N/A

Pressure: 30.18 "Hg

Humidity: 42%

Dew point: 36 °F

Location of ShenzhenLocation

Historic Weather in Shenzhen — Graph

°F

Shenzhen temperature yesterday

Maximum temperature yesterday: 55 °F (at 1:00 AM)
Minimum temperature yesterday: 50 °F (at 5:00 AM)
Average temperature yesterday: 53 °F

Past Weeks' High & Low Weather Summary

 TemperatureHumidityPressure
High75 °F (Dec 9, 1:00 PM)94% (Dec 8, 5:00 AM)30.45 "Hg (Dec 8, 5:00 AM)
Low48 °F (Dec 13, 7:00 AM)16% (Dec 17, 2:00 PM)30.04 "Hg (Dec 10, 2:00 PM)
Average60 °F54%30.21 "Hg
* Reported Dec 5 10:00 AM — Dec 20 10:00 AM, Shenzhen, Weather by CustomWeather, © 2014

Note: Actual official high and low records may vary slightly from our data, if they occured in-between our weather recording intervals... More about our weather records

Advertising

Shenzhen weather history for previous 24 hours

 ConditionsComfort  
Time TempWeatherWind HumidityBarometerVisibility
10:00 AM
Dec 20
57 °FSunny.13 mph44%30.21 "Hg10 mi
9:00 AM54 °FSunny.8 mph54%30.21 "Hg10 mi
8:00 AM50 °FSunny.8 mph62%30.21 "Hg10 mi
7:00 AM48 °FClear.6 mph71%30.18 "Hg5 mi
6:00 AM48 °FClear.6 mph71%30.15 "Hg5 mi
5:00 AM50 °FClear.6 mph71%30.15 "Hg5 mi
4:00 AM50 °FClear.8 mph76%30.15 "Hg5 mi
3:00 AM50 °FPassing clouds.8 mph76%30.18 "Hg5 mi
2:00 AM50 °FLight rain. Passing clouds.3 mph76%30.18 "HgN/A
1:00 AM52 °FLight rain. Overcast.3 mph77%30.21 "HgN/A
12:00 AM52 °FLight rain. Overcast.6 mph77%30.21 "HgN/A
11:00 PM
Dec 19
52 °FLight rain. Overcast.6 mph82%30.24 "Hg4 mi
10:00 PM52 °FLight rain. Overcast.8 mph82%30.24 "Hg4 mi
9:00 PM52 °FLight rain. Fog.3 mph88%30.24 "Hg2 mi
8:00 PM52 °FLight rain. Fog.8 mph88%30.21 "Hg2 mi
7:00 PM52 °FLight rain. Fog.8 mph88%30.21 "Hg3 mi
6:00 PM54 °FLight rain. Fog.10 mph82%30.21 "Hg2 mi
5:00 PM54 °FLight rain. Fog.8 mph88%30.21 "Hg2 mi
4:00 PM54 °FLight rain. Fog.10 mph82%30.21 "Hg2 mi
3:00 PM54 °FLight rain. Fog.10 mph82%30.21 "Hg2 mi
2:00 PM54 °FLight rain. Fog.10 mph82%30.24 "Hg2 mi
1:00 PM54 °FLight rain. Fog.10 mph88%30.27 "Hg2 mi
12:00 PM54 °FLight rain. Fog.6 mph88%30.30 "Hg2 mi
11:00 AM54 °FLight rain. Fog.10 mph82%30.30 "Hg2 mi
Weather by CustomWeather, © 2014

See weather overviewHow to use our weather pages